User: anonymous   Login
Location: Newark
(39.0622°N, 106.5590°E)
Time: 05:09:43
(UTC+00:00)
Language:

A-11 Canister half - Orbit

View from above orbital plane
View from above orbital plane
View from above satellite
View from above satellite

Ground track
Ground track

The orbit data is extracted from the following two-line orbital elements,

1    51U 60009C   20018.54248700 -.00000178 +00000-0 -88879-3 0  9993
2    51 047.2133 094.2958 0104613 075.7258 285.5122 12.18271717645696
Epoch (UTC): 18 January 2020 13:01:10
Eccentricity: 0.0104613
inclination: 47.2133°
perigee height: 1516 km
apogee height: 1683 km
right ascension of ascending node: 94.2958°
argument of perigee: 75.7258°
revolutions per day: 12.18271717
mean anomaly at epoch: 285.5122°
orbit number at epoch: 64569

The dashed part of the orbit path shows where the satellite is in the earth's shadow,  

DLR